| time (UTC) | temp C | wind direction | speed KPH | gust KPH | rain 1hr cm | rain 24hr cm | rain mn cm | humidity % | barometer mb |
| 20260504045640 | 1 | 62 | 0.0 | 0.0 | 0.00 | 0.00 | 0.00 | 92 | 1011.5 |
| 20260504045140 | 1 | 62 | 0.0 | 0.0 | 0.00 | 0.00 | 0.00 | 92 | 1011.6 |
| 20260504044638 | 1 | 63 | 0.0 | 0.0 | 0.00 | 0.00 | 0.00 | 92 | 1011.4 |
| 20260504044135 | 1 | 62 | 0.0 | 0.0 | 0.00 | 0.00 | 0.00 | 92 | 1011.2 |
| 20260504043632 | 1 | 62 | 0.0 | 0.0 | 0.00 | 0.00 | 0.00 | 91 | 1011.7 |
| 20260504043129 | 1 | 62 | 0.0 | 0.0 | 0.00 | 0.00 | 0.00 | 90 | 1011.5 |
| 20260504042626 | 2 | 62 | 0.0 | 0.0 | 0.00 | 0.00 | 0.00 | 90 | 1011.4 |
| 20260504042123 | 2 | 53 | 0.0 | 1.6 | 0.00 | 0.00 | 0.00 | 89 | 1011.3 |
| 20260504041618 | 2 | 53 | 0.0 | 0.0 | 0.00 | 0.00 | 0.00 | 87 | 1011.4 |
| 20260504041115 | 2 | 53 | 0.0 | 0.0 | 0.00 | 0.00 | 0.00 | 85 | 1011.3 |
| 20260504040612 | 3 | 64 | 0.0 | 0.0 | 0.00 | 0.00 | 0.00 | 84 | 1011.3 |
| 20260504040109 | 3 | 69 | 0.0 | 0.0 | 0.00 | 0.00 | 0.00 | 79 | 1011.4 |
| 20260504035606 | 4 | 74 | 0.0 | 1.6 | 0.00 | 0.00 | 0.00 | 77 | 1011.5 |
| 20260504035102 | 4 | 72 | 1.6 | 1.6 | 0.00 | 0.00 | 0.00 | 78 | 1011.5 |
| 20260504034600 | 4 | 66 | 0.0 | 0.0 | 0.00 | 0.00 | 0.00 | 78 | 1011.4 |
| 20260504034057 | 4 | 73 | 1.6 | 1.6 | 0.00 | 0.00 | 0.00 | 74 | 1011.3 |
| 20260504033555 | 5 | 79 | 1.6 | 1.6 | 0.00 | 0.00 | 0.00 | 76 | 1011.2 |
| 20260504033052 | 5 | 47 | 1.6 | 1.6 | 0.00 | 0.00 | 0.00 | 72 | 1011.3 |
| 20260504032549 | 4 | 77 | 1.6 | 1.6 | 0.00 | 0.00 | 0.00 | 79 | 1011.3 |
| 20260504032045 | 5 | 71 | 0.0 | 0.0 | 0.00 | 0.00 | 0.00 | 79 | 1011.6 |
| 20260504031542 | 5 | 75 | 0.0 | 0.0 | 0.00 | 0.00 | 0.00 | 74 | 1011.4 |
| 20260504031038 | 5 | 69 | 0.0 | 0.0 | 0.00 | 0.00 | 0.00 | 70 | 1011.5 |
| 20260504030536 | 5 | 68 | 0.0 | 0.0 | 0.00 | 0.00 | 0.00 | 75 | 1011.6 |
| 20260504030032 | 5 | 72 | 0.0 | 0.0 | 0.00 | 0.00 | 0.00 | 72 | 1011.7 |
| 20260504025530 | 5 | 82 | 1.6 | 1.6 | 0.00 | 0.00 | 0.00 | 74 | 1011.5 |
| 20260504025026 | 6 | 72 | 0.0 | 0.0 | 0.00 | 0.00 | 0.00 | 68 | 1011.5 |
| 20260504024523 | 6 | 62 | 0.0 | 0.0 | 0.00 | 0.00 | 0.00 | 71 | 1011.6 |
| 20260504024020 | 5 | 66 | 0.0 | 0.0 | 0.00 | 0.00 | 0.00 | 70 | 1011.7 |
| 20260504023517 | 5 | 74 | 0.0 | 1.6 | 0.00 | 0.00 | 0.00 | 72 | 1011.6 |
| 20260504023012 | 6 | 69 | 1.6 | 1.6 | 0.00 | 0.00 | 0.00 | 68 | 1011.5 |
| 20260504022508 | 6 | 68 | 1.6 | 1.6 | 0.00 | 0.00 | 0.00 | 67 | 1011.6 |
| 20260504022005 | 6 | 70 | 0.0 | 0.0 | 0.00 | 0.00 | 0.00 | 67 | 1011.8 |
| 20260504021503 | 6 | 58 | 0.0 | 1.6 | 0.00 | 0.00 | 0.00 | 67 | 1011.5 |
| 20260504020959 | 6 | 72 | 0.0 | 0.0 | 0.00 | 0.00 | 0.00 | 69 | 1011.7 |
| 20260504020456 | 6 | 71 | 0.0 | 0.0 | 0.00 | 0.00 | 0.00 | 69 | 1011.5 |
| 20260504015953 | 6 | 77 | 0.0 | 0.0 | 0.00 | 0.00 | 0.00 | 70 | 1011.7 |
| 20260504015449 | 5 | 77 | 0.0 | 0.0 | 0.00 | 0.00 | 0.00 | 70 | 1011.6 |
| 20260504014945 | 5 | 84 | 1.6 | 1.6 | 0.00 | 0.00 | 0.00 | 71 | 1011.5 |
| 20260504014441 | 5 | 69 | 0.0 | 0.0 | 0.00 | 0.00 | 0.00 | 70 | 1011.5 |
| 20260504013938 | 5 | 69 | 0.0 | 0.0 | 0.00 | 0.00 | 0.00 | 70 | 1011.4 |
| 20260504013437 | 5 | 86 | 1.6 | 1.6 | 0.00 | 0.00 | 0.00 | 70 | 1011.4 |
| 20260504012932 | 6 | 73 | 0.0 | 0.0 | 0.00 | 0.00 | 0.00 | 71 | 1011.5 |
| 20260504012431 | 6 | 178 | 3.2 | 4.8 | 0.00 | 0.00 | 0.00 | 66 | 1011.4 |
| 20260504011928 | 6 | 67 | 0.0 | 0.0 | 0.00 | 0.00 | 0.00 | 68 | 1011.2 |
| 20260504011425 | 6 | 74 | 1.6 | 1.6 | 0.00 | 0.00 | 0.00 | 68 | 1011.1 |
| 20260504010920 | 6 | 71 | 0.0 | 0.0 | 0.00 | 0.00 | 0.00 | 69 | 1011.5 |
| 20260504010416 | 6 | 61 | 0.0 | 0.0 | 0.00 | 0.00 | 0.00 | 66 | 1011.2 |
| 20260504005913 | 6 | 72 | 0.0 | 0.0 | 0.00 | 0.00 | 0.00 | 67 | 1011.2 |
| 20260504005409 | 6 | 49 | 0.0 | 1.6 | 0.00 | 0.00 | 0.00 | 67 | 1011.2 |
| 20260504004908 | 7 | 64 | 0.0 | 0.0 | 0.00 | 0.00 | 0.00 | 65 | 1011.4 |
| 20260504004405 | 7 | 61 | 0.0 | 0.0 | 0.00 | 0.00 | 0.00 | 64 | 1011.4 |
| 20260504003901 | 7 | 70 | 0.0 | 0.0 | 0.00 | 0.00 | 0.00 | 63 | 1011.2 |
| 20260504003358 | 8 | 73 | 0.0 | 0.0 | 0.00 | 0.00 | 0.00 | 62 | 1011.1 |
| 20260504002854 | 8 | 61 | 0.0 | 0.0 | 0.00 | 0.00 | 0.00 | 58 | 1011.0 |
| 20260504002351 | 8 | 42 | 1.6 | 1.6 | 0.00 | 0.00 | 0.00 | 56 | 1011.3 |
| 20260504001849 | 9 | 32 | 0.0 | 1.6 | 0.00 | 0.00 | 0.00 | 56 | 1011.2 |
| 20260504001346 | 9 | 70 | 1.6 | 1.6 | 0.00 | 0.00 | 0.00 | 55 | 1011.3 |
| 20260504000843 | 9 | 46 | 0.0 | 0.0 | 0.00 | 0.00 | 0.00 | 57 | 1011.1 |
| 20260504000340 | 10 | 5 | 3.2 | 3.2 | 0.00 | 0.00 | 0.00 | 53 | 1011.3 |
| 20260503235837 | 10 | 13 | 3.2 | 3.2 | 0.00 | 0.00 | 0.00 | 52 | 1011.1 |
| 20260503235335 | 10 | 31 | 1.6 | 1.6 | 0.00 | 0.00 | 0.00 | 52 | 1010.9 |
| 20260503234832 | 10 | 334 | 4.8 | 4.8 | 0.00 | 0.00 | 0.00 | 50 | 1011.1 |
| 20260503234330 | 10 | 27 | 3.2 | 4.8 | 0.00 | 0.00 | 0.00 | 51 | 1011.3 |
| 20260503233828 | 10 | 329 | 4.8 | 6.4 | 0.00 | 0.00 | 0.00 | 50 | 1011.0 |
| 20260503233323 | 11 | 24 | 4.8 | 4.8 | 0.00 | 0.00 | 0.00 | 49 | 1010.9 |
| 20260503232820 | 11 | 320 | 3.2 | 4.8 | 0.00 | 0.00 | 0.00 | 50 | 1011.1 |
| 20260503232318 | 11 | 338 | 3.2 | 4.8 | 0.00 | 0.00 | 0.00 | 50 | 1011.0 |
| 20260503231815 | 11 | 305 | 4.8 | 4.8 | 0.00 | 0.00 | 0.00 | 48 | 1011.1 |
| 20260503231312 | 11 | 305 | 3.2 | 4.8 | 0.00 | 0.00 | 0.00 | 48 | 1011.3 |
| 20260503230808 | 11 | 11 | 4.8 | 4.8 | 0.00 | 0.00 | 0.00 | 47 | 1011.0 |
| 20260503230305 | 11 | 310 | 9.7 | 12.9 | 0.00 | 0.00 | 0.00 | 46 | 1011.2 |
| 20260503225803 | 11 | 31 | 1.6 | 1.6 | 0.00 | 0.00 | 0.00 | 49 | 1011.3 |
| 20260503225258 | 11 | 324 | 4.8 | 4.8 | 0.00 | 0.00 | 0.00 | 48 | 1011.3 |
| 20260503224755 | 11 | 347 | 3.2 | 3.2 | 0.00 | 0.00 | 0.00 | 48 | 1011.2 |
| 20260503224252 | 11 | 280 | 9.7 | 12.9 | 0.00 | 0.00 | 0.00 | 47 | 1011.1 |
| 20260503223750 | 11 | 318 | 4.8 | 6.4 | 0.00 | 0.00 | 0.00 | 47 | 1011.0 |
| 20260503223247 | 11 | 2 | 3.2 | 4.8 | 0.00 | 0.00 | 0.00 | 50 | 1011.2 |
| 20260503222743 | 11 | 283 | 9.7 | 12.9 | 0.00 | 0.00 | 0.00 | 46 | 1011.2 |
| 20260503222241 | 12 | 301 | 6.4 | 6.4 | 0.00 | 0.00 | 0.00 | 45 | 1011.0 |
| 20260503221739 | 11 | 31 | 3.2 | 3.2 | 0.00 | 0.00 | 0.00 | 47 | 1011.4 |
| 20260503221237 | 11 | 292 | 4.8 | 6.4 | 0.00 | 0.00 | 0.00 | 46 | 1011.1 |
| 20260503220733 | 11 | 298 | 9.7 | 11.3 | 0.00 | 0.00 | 0.00 | 47 | 1011.2 |
| 20260503220230 | 11 | 318 | 14.5 | 16.1 | 0.00 | 0.00 | 0.00 | 46 | 1011.1 |
| 20260503215727 | 12 | 28 | 8.0 | 9.7 | 0.00 | 0.00 | 0.00 | 46 | 1011.1 |
| 20260503215224 | 12 | 314 | 9.7 | 11.3 | 0.00 | 0.00 | 0.00 | 44 | 1011.2 |
| 20260503214722 | 12 | 321 | 8.0 | 9.7 | 0.00 | 0.00 | 0.00 | 47 | 1011.3 |
| 20260503214219 | 11 | 30 | 1.6 | 1.6 | 0.00 | 0.00 | 0.00 | 48 | 1011.2 |
| 20260503213717 | 11 | 323 | 3.2 | 3.2 | 0.00 | 0.00 | 0.00 | 48 | 1011.2 |
| 20260503213214 | 11 | 286 | 6.4 | 6.4 | 0.00 | 0.00 | 0.00 | 46 | 1011.3 |
| 20260503212710 | 11 | 278 | 6.4 | 6.4 | 0.00 | 0.00 | 0.00 | 47 | 1011.3 |
| 20260503212208 | 11 | 305 | 8.0 | 9.7 | 0.00 | 0.00 | 0.00 | 45 | 1011.1 |
| 20260503211706 | 12 | 313 | 11.3 | 16.1 | 0.00 | 0.00 | 0.00 | 45 | 1011.3 |
| 20260503211201 | 12 | 332 | 3.2 | 4.8 | 0.00 | 0.00 | 0.00 | 45 | 1011.2 |
| 20260503210657 | 11 | 302 | 4.8 | 6.4 | 0.00 | 0.00 | 0.00 | 46 | 1011.1 |
| 20260503210155 | 11 | 282 | 6.4 | 9.7 | 0.00 | 0.00 | 0.00 | 45 | 1011.1 |
| 20260503205650 | 11 | 301 | 8.0 | 11.3 | 0.00 | 0.00 | 0.00 | 46 | 1011.3 |
| 20260503205146 | 12 | 304 | 6.4 | 6.4 | 0.00 | 0.00 | 0.00 | 44 | 1011.3 |
| 20260503204643 | 11 | 268 | 8.0 | 11.3 | 0.00 | 0.00 | 0.00 | 46 | 1011.1 |
| 20260503204141 | 11 | 56 | 3.2 | 4.8 | 0.00 | 0.00 | 0.00 | 45 | 1011.2 |
| 20260503203638 | 12 | 344 | 8.0 | 11.3 | 0.00 | 0.00 | 0.00 | 44 | 1011.2 |
| 20260503203135 | 11 | 290 | 3.2 | 4.8 | 0.00 | 0.00 | 0.00 | 47 | 1011.4 |
| 20260503202632 | 11 | 269 | 6.4 | 9.7 | 0.00 | 0.00 | 0.00 | 47 | 1011.3 |
| 20260503202131 | 13 | 349 | 8.0 | 12.9 | 0.00 | 0.00 | 0.00 | 44 | 1011.3 |
| 20260503201628 | 12 | 292 | 6.4 | 9.7 | 0.00 | 0.00 | 0.00 | 44 | 1011.4 |
| 20260503201125 | 11 | 305 | 6.4 | 9.7 | 0.00 | 0.00 | 0.00 | 48 | 1011.5 |
| 20260503200621 | 12 | 282 | 11.3 | 12.9 | 0.00 | 0.00 | 0.00 | 46 | 1011.5 |
| 20260503200118 | 11 | 254 | 4.8 | 6.4 | 0.00 | 0.00 | 0.00 | 47 | 1011.6 |
| 20260503195615 | 11 | 320 | 4.8 | 6.4 | 0.00 | 0.00 | 0.00 | 48 | 1011.6 |
| 20260503195112 | 11 | 330 | 8.0 | 11.3 | 0.00 | 0.00 | 0.00 | 46 | 1011.6 |
| 20260503194609 | 12 | 311 | 9.7 | 16.1 | 0.00 | 0.00 | 0.00 | 45 | 1012.0 |
| 20260503194104 | 12 | 237 | 4.8 | 4.8 | 0.00 | 0.00 | 0.00 | 46 | 1011.8 |
| 20260503193601 | 12 | 43 | 3.2 | 4.8 | 0.00 | 0.00 | 0.00 | 43 | 1011.7 |
| 20260503193056 | 12 | 297 | 6.4 | 9.7 | 0.00 | 0.00 | 0.00 | 46 | 1012.0 |
| 20260503192552 | 12 | 299 | 8.0 | 12.9 | 0.00 | 0.00 | 0.00 | 46 | 1012.0 |
| 20260503192048 | 11 | 298 | 8.0 | 9.7 | 0.00 | 0.00 | 0.00 | 49 | 1012.1 |
| 20260503191545 | 11 | 11 | 11.3 | 14.5 | 0.00 | 0.00 | 0.00 | 49 | 1012.4 |
| 20260503191042 | 12 | 10 | 11.3 | 12.9 | 0.00 | 0.00 | 0.00 | 44 | 1012.2 |
| 20260503190539 | 12 | 291 | 8.0 | 9.7 | 0.00 | 0.00 | 0.00 | 48 | 1012.3 |
| 20260503190037 | 12 | 266 | 9.7 | 11.3 | 0.00 | 0.00 | 0.00 | 46 | 1012.2 |
| 20260503185533 | 11 | 298 | 6.4 | 6.4 | 0.00 | 0.00 | 0.00 | 48 | 1012.3 |
| 20260503185032 | 12 | 307 | 9.7 | 14.5 | 0.00 | 0.00 | 0.00 | 49 | 1012.3 |
| 20260503184529 | 11 | 283 | 8.0 | 11.3 | 0.00 | 0.00 | 0.00 | 46 | 1012.4 |
| 20260503184025 | 10 | 292 | 4.8 | 6.4 | 0.00 | 0.00 | 0.00 | 50 | 1012.6 |
| 20260503183522 | 10 | 317 | 8.0 | 11.3 | 0.00 | 0.00 | 0.00 | 49 | 1012.7 |
| 20260503183019 | 11 | 296 | 9.7 | 12.9 | 0.00 | 0.00 | 0.00 | 46 | 1012.4 |
| 20260503182518 | 11 | 25 | 4.8 | 6.4 | 0.00 | 0.00 | 0.00 | 54 | 1012.8 |
| 20260503182015 | 12 | 29 | 6.4 | 9.7 | 0.00 | 0.00 | 0.00 | 45 | 1012.6 |
| 20260503181512 | 11 | 324 | 6.4 | 11.3 | 0.00 | 0.00 | 0.00 | 49 | 1012.6 |
| 20260503181008 | 11 | 301 | 6.4 | 6.4 | 0.00 | 0.00 | 0.00 | 49 | 1012.5 |
| 20260503180506 | 11 | 274 | 9.7 | 11.3 | 0.00 | 0.00 | 0.00 | 49 | 1012.5 |
| 20260503180002 | 10 | 2 | 3.2 | 3.2 | 0.00 | 0.00 | 0.00 | 50 | 1012.7 |
| 20260503175500 | 10 | 9 | 1.6 | 3.2 | 0.00 | 0.00 | 0.00 | 55 | 1012.8 |
| 20260503174956 | 10 | 328 | 12.9 | 14.5 | 0.00 | 0.00 | 0.00 | 48 | 1013.0 |
| 20260503174454 | 11 | 336 | 6.4 | 6.4 | 0.00 | 0.00 | 0.00 | 52 | 1012.9 |
| 20260503173949 | 11 | 242 | 9.7 | 11.3 | 0.00 | 0.00 | 0.00 | 49 | 1012.7 |
| 20260503173445 | 10 | 351 | 8.0 | 12.9 | 0.00 | 0.00 | 0.00 | 51 | 1012.7 |
| 20260503172942 | 10 | 289 | 9.7 | 12.9 | 0.00 | 0.00 | 0.00 | 50 | 1012.9 |
| 20260503172440 | 10 | 319 | 4.8 | 6.4 | 0.00 | 0.00 | 0.00 | 47 | 1012.8 |
| 20260503171936 | 10 | 299 | 8.0 | 11.3 | 0.00 | 0.00 | 0.00 | 47 | 1012.9 |
| 20260503171433 | 10 | 300 | 6.4 | 9.7 | 0.00 | 0.00 | 0.00 | 50 | 1013.0 |
| 20260503170931 | 11 | 257 | 11.3 | 12.9 | 0.00 | 0.00 | 0.00 | 48 | 1013.1 |
| 20260503170426 | 10 | 313 | 8.0 | 9.7 | 0.00 | 0.00 | 0.00 | 51 | 1013.0 |
| 20260503150819 | 7 | 243 | 6.4 | 6.4 | 0.00 | 0.00 | 0.00 | 65 | 1013.9 |
| 20260503150315 | 7 | 298 | 6.4 | 6.4 | 0.00 | 0.00 | 0.00 | 64 | 1013.8 |
| 20260503140239 | 6 | 305 | 6.4 | 9.7 | 0.00 | 0.00 | 0.00 | 70 | 1014.1 |
| 20260503131209 | 4 | 249 | 6.4 | 9.7 | 0.00 | 0.00 | 0.00 | 73 | 1013.8 |
| 20260503130707 | 4 | 319 | 4.8 | 4.8 | 0.00 | 0.00 | 0.00 | 75 | 1013.8 |
| 20260503130204 | 3 | 257 | 6.4 | 9.7 | 0.00 | 0.00 | 0.00 | 77 | 1013.9 |
| 20260503120129 | 1 | 321 | 6.4 | 6.4 | 0.00 | 0.00 | 0.00 | 86 | 1013.5 |
| 20260503110556 | -1 | 17 | 1.6 | 3.2 | 0.00 | 0.00 | 0.00 | 93 | 1013.1 |
| 20260503090444 | -1 | 24 | 1.6 | 1.6 | 0.00 | 0.00 | 0.00 | 91 | 1012.3 |
| 20260503081410 | -1 | 30 | 1.6 | 1.6 | 0.00 | 0.00 | 0.00 | 92 | 1012.2 |
| 20260503080907 | -1 | 26 | 1.6 | 1.6 | 0.00 | 0.00 | 0.00 | 92 | 1012.0 |
| 20260503080404 | -1 | 29 | 1.6 | 1.6 | 0.00 | 0.00 | 0.00 | 92 | 1012.2 |
| 20260503072840 | -1 | 69 | 0.0 | 0.0 | 0.00 | 0.00 | 0.00 | 92 | 1012.0 |
| 20260503072337 | 0 | 69 | 0.0 | 0.0 | 0.00 | 0.00 | 0.00 | 91 | 1011.8 |
| 20260503071833 | 0 | 47 | 0.0 | 0.0 | 0.00 | 0.00 | 0.00 | 90 | 1011.8 |
| 20260503071331 | 0 | 50 | 0.0 | 0.0 | 0.00 | 0.00 | 0.00 | 91 | 1011.7 |
| 20260503070827 | 0 | 66 | 0.0 | 0.0 | 0.00 | 0.00 | 0.00 | 91 | 1011.8 |
| 20260503070325 | 0 | 49 | 0.0 | 0.0 | 0.00 | 0.00 | 0.00 | 90 | 1011.8 |
| 20260503060256 | 1 | 3 | 1.6 | 3.2 | 0.00 | 0.00 | 0.00 | 85 | 1011.8 |
| 20260503054743 | 0 | 57 | 0.0 | 1.6 | 0.00 | 0.00 | 0.00 | 86 | 1011.8 |
| 20260503054240 | 0 | 16 | 1.6 | 1.6 | 0.00 | 0.00 | 0.00 | 85 | 1012.2 |
| 20260503053738 | 0 | 44 | 0.0 | 1.6 | 0.00 | 0.00 | 0.00 | 86 | 1012.1 |
| 20260503053237 | 0 | 350 | 1.6 | 3.2 | 0.00 | 0.00 | 0.00 | 87 | 1011.8 |
| 20260503052732 | 0 | 49 | 1.6 | 1.6 | 0.00 | 0.00 | 0.00 | 87 | 1012.1 |
| 20260503052229 | 0 | 40 | 1.6 | 1.6 | 0.00 | 0.00 | 0.00 | 87 | 1012.0 |
| 20260503051724 | 0 | 35 | 1.6 | 1.6 | 0.00 | 0.00 | 0.00 | 86 | 1012.0 |
| 20260503051222 | 0 | 34 | 1.6 | 1.6 | 0.00 | 0.00 | 0.00 | 86 | 1012.0 |
| 20260503050718 | 0 | 40 | 0.0 | 1.6 | 0.00 | 0.00 | 0.00 | 86 | 1012.1 |
| 20260503050215 | 0 | 44 | 0.0 | 0.0 | 0.00 | 0.00 | 0.00 | 86 | 1012.0 |